Location,LocationNum,Date,Time,C 0.3-0.5um,C 0.5-0.7um,C 0.7-1.0um,C 1.0-2.0um,C 2.0-5.0um,C >5.0um,Temperature,Humidity,Flags,Liters
Label 1   ,1,03/10/08,09:56:58,108160,5607,1219,917,382,17,19,69,2,2.832
Label 1   ,2,03/10/08,09:57:58,105714,5355,1189,874,541,71,19,68,2,2.832
Label 1   ,3,03/10/08,09:58:58,106397,5634,1332,1105,748,125,19,67,2,2.832
Label 1   ,4,03/10/08,09:59:58,108875,5800,1246,874,449,26,19,67,2,2.832
Label 1   ,5,03/10/08,10:00:58,114527,6487,1422,993,453,37,19,66,2,2.832
Label 1   ,6,03/10/08,10:01:59,120840,8234,1872,1224,430,18,19,65,2,2.832
Label 1   ,7,03/10/08,10:02:59,119526,8725,2040,1309,407,13,18,64,2,2.832
Label 1   ,8,03/10/08,10:03:59,121128,8967,2162,1344,409,10,19,64,2,2.832
Label 1   ,9,03/10/08,10:04:59,112418,7635,1785,1158,376,12,18,61,2,2.832
Label 1   ,10,03/10/08,10:05:59,109455,6605,1525,984,401,23,18,62,2,2.832
Label 1   ,11,03/10/08,10:06:59,107627,6215,1403,923,329,6.0,18,61,2,2.832
Label 1   ,12,03/10/08,10:08:00,106269,6023,1310,875,288,7.4,18,61,2,2.832
Label 1   ,13,03/10/08,10:09:42,100976,5465,1212,884,384,14,18,60,0,2.832
Label 1   ,14,03/10/08,10:10:42,100861,5335,1176,814,332,11,18,61,0,2.832
Label 1   ,15,03/10/08,10:11:42,102879,5385,1177,812,335,12,18,60,0,2.832
Label 1   ,16,03/10/08,10:12:42,100909,5217,1166,851,390,14,18,61,0,2.832
Label 1   ,17,03/10/08,10:13:42,99291,5006,1128,857,385,12,18,60,0,2.832
Label 1   ,18,03/10/08,10:14:43,97478,4894,1086,789,335,4.6,18,59,0,2.832
Label 1   ,19,03/10/08,10:15:43,97567,4927,1081,792,326,6.0,18,59,0,2.832
Label 1   ,20,03/10/08,10:16:43,99234,4951,1116,772,328,7.4,19,60,0,2.832
Label 1   ,21,03/10/08,10:17:43,101471,5157,1091,792,336,7.8,18,59,0,2.832
Label 1   ,22,03/10/08,10:18:43,108205,5641,1157,804,322,7.1,18,58,0,2.832
Label 1   ,23,03/10/08,10:19:43,107808,5637,1153,773,334,16,18,58,0,2.832
Label 1   ,24,03/10/08,10:20:44,111568,5958,1244,820,444,55,17,57,0,2.832
Label 1   ,25,03/10/08,10:21:44,107924,5626,1156,737,349,16,18,57,0,2.832
Label 1   ,26,03/10/08,10:22:44,109999,5770,1199,776,326,6.7,18,57,0,2.832
Label 1   ,27,03/10/08,10:23:44,107535,5514,1155,766,348,16,18,57,0,2.832
Label 1   ,28,03/10/08,10:24:44,105996,5392,1105,764,334,17,19,57,0,2.832
Label 1   ,29,03/10/08,10:25:44,116798,6400,1347,971,491,30,19,57,0,2.832
Label 1   ,30,03/10/08,10:26:44,122008,6888,1462,988,429,18,18,56,0,2.832
Label 1   ,31,03/10/08,10:27:45,123509,7053,1479,1016,484,25,18,55,0,2.832
Label 1   ,32,03/10/08,10:28:45,122863,7099,1525,1015,411,11,20,54,0,2.832
Label 1   ,33,03/10/08,10:29:45,119098,6691,1420,962,369,8.1,19,55,0,2.832
Label 1   ,34,03/10/08,10:30:45,114236,6184,1283,869,359,9.9,19,54,0,2.832
Label 1   ,35,03/10/08,10:31:45,113685,6093,1277,833,366,9.2,19,54,0,2.832
Label 1   ,36,03/10/08,10:32:45,113256,6156,1307,883,382,7.4,18,53,0,2.832
Label 1   ,37,03/10/08,10:33:45,115715,6592,1414,962,447,14,19,53,0,2.832
Label 1   ,38,03/10/08,10:34:46,120095,7043,1577,1075,451,11,18,53,0,2.832
Label 1   ,39,03/10/08,10:35:46,108409,6733,1593,1149,520,16,19,52,0,2.832
Label 1   ,40,03/10/08,10:36:46,107612,6925,1667,1195,427,5.3,19,51,0,2.832
Label 1   ,41,03/10/08,10:37:46,111406,7082,1705,1178,434,6.0,19,51,0,2.832
Label 1   ,42,03/10/08,10:38:46,110199,6757,1612,1094,396,7.4,19,50,0,2.832
Label 1   ,43,03/10/08,10:39:46,104561,6979,1673,1190,384,8.1,19,49,0,2.832
Label 1   ,44,03/10/08,10:40:46,99423,6530,1611,1130,396,5.3,19,49,0,2.832
Label 1   ,45,03/10/08,10:41:47,100509,6738,1757,1177,375,4.6,18,49,0,2.832
Label 1   ,46,03/10/08,10:42:47,101535,7249,1860,1235,390,4.6,18,49,0,2.832
Label 1   ,47,03/10/08,10:43:47,97427,6052,1468,1008,403,8.5,19,50,0,2.832
Label 1   ,48,03/10/08,10:44:47,95405,5513,1306,927,413,8.5,19,49,0,2.832
Label 1   ,49,03/10/08,10:45:47,95457,5380,1262,944,415,11,19,50,0,2.832
Label 1   ,50,03/10/08,10:46:47,92183,4923,1145,836,378,6.0,19,49,0,2.832
Label 1   ,51,03/10/08,10:47:48,93747,5115,1136,824,358,6.0,19,50,0,2.832
Label 1   ,52,03/10/08,10:48:48,94235,5127,1137,802,350,7.4,18,49,0,2.832
Label 1   ,53,03/10/08,10:49:48,95173,5180,1166,803,353,3.9,18,49,0,2.832
Label 1   ,54,03/10/08,10:50:48,97547,5423,1215,868,372,6.0,18,50,0,2.832
Label 1   ,55,03/10/08,10:51:48,96128,5445,1212,868,376,9.2,18,49,0,2.832
Label 1   ,56,03/10/08,10:52:48,95207,5338,1203,889,371,6.4,17,49,0,2.832
Label 1   ,57,03/10/08,10:53:48,94791,5345,1264,882,364,5.3,19,49,0,2.832
Label 1   ,58,03/10/08,10:54:49,95781,5779,1398,1079,409,8.8,19,49,0,2.832
Label 1   ,59,03/10/08,10:55:49,96852,5760,1442,1042,400,4.6,18,49,0,2.832
Label 1   ,60,03/10/08,10:56:49,96895,5750,1412,1079,549,24,19,49,0,2.832
Label 1   ,61,03/10/08,10:57:49,97255,5468,1359,1083,626,29,18,49,0,2.832
Label 1   ,62,03/10/08,10:58:49,97365,5589,1326,1000,406,4.9,18,48,0,2.832
Label 1   ,63,03/10/08,10:59:49,98127,5512,1308,966,405,5.3,17,48,0,2.832
Label 1   ,64,03/10/08,11:00:49,97264,5374,1224,927,404,5.3,17,48,0,2.832
Label 1   ,65,03/10/08,11:01:50,94992,5150,1153,864,331,4.6,17,48,0,2.832
Label 1   ,66,03/10/08,11:02:50,92239,4973,1122,807,354,3.9,19,47,0,2.832
Label 1   ,67,03/10/08,11:03:50,92899,4920,1135,840,335,3.5,19,47,0,2.832
Label 1   ,68,03/10/08,11:04:50,91592,4945,1112,816,350,4.2,19,47,0,2.832
Label 1   ,69,03/10/08,11:05:50,93962,5055,1184,844,382,11,19,47,0,2.832
Label 1   ,70,03/10/08,11:06:50,91560,5061,1240,967,510,17,20,46,0,2.832
Label 1   ,71,03/10/08,11:07:50,91756,5134,1242,951,560,21,19,47,0,2.832
Label 1   ,72,03/10/08,11:08:51,95105,5260,1249,907,480,13,17,47,0,2.832
Label 1   ,73,03/10/08,11:09:51,94975,5304,1236,941,480,18,18,48,0,2.832
Label 1   ,74,03/10/08,11:10:51,94309,5317,1253,941,499,14,20,47,0,2.832
Label 1   ,75,03/10/08,11:11:51,92821,4979,1146,839,357,6.4,19,47,0,2.832
Label 1   ,76,03/10/08,11:12:51,94646,5155,1149,820,352,3.5,18,47,0,2.832
Label 1   ,77,03/10/08,11:13:51,93904,5400,1244,908,391,11,21,46,0,2.832
Label 1   ,78,03/10/08,11:14:52,91245,5040,1144,839,372,5.3,22,45,0,2.832
Label 1   ,79,03/10/08,11:15:52,90317,4880,1155,831,345,3.2,22,45,0,2.832
Label 1   ,80,03/10/08,11:16:52,90070,5072,1168,829,350,3.9,22,44,0,2.832
Label 1   ,81,03/10/08,11:17:52,90432,5162,1218,842,359,7.1,22,43,0,2.832
Label 1   ,82,03/10/08,11:18:52,91242,5028,1111,775,304,6.0,21,44,0,2.832
Label 1   ,83,03/10/08,11:19:52,93292,5211,1195,777,313,3.9,21,44,0,2.832
Label 1   ,84,03/10/08,11:20:52,93289,5108,1117,762,296,4.2,20,44,0,2.832
Label 1   ,85,03/10/08,11:21:53,93213,5078,1134,774,316,3.5,20,44,0,2.832
Label 1   ,86,03/10/08,11:22:53,96360,5442,1205,835,334,2.1,19,43,0,2.832
Label 1   ,87,03/10/08,11:23:53,95619,5345,1189,826,303,3.2,20,43,0,2.832
Label 1   ,88,03/10/08,11:24:53,95216,5318,1195,837,431,37,19,43,0,2.832
Label 1   ,89,03/10/08,11:25:53,97571,5609,1277,877,503,66,20,44,0,2.832
Label 1   ,90,03/10/08,11:26:53,97079,5401,1212,834,322,2.1,19,44,0,2.832
Label 1   ,91,03/10/08,11:27:54,96067,5449,1211,816,301,2.8,21,42,0,2.832
Label 1   ,92,03/10/08,11:28:54,98885,5840,1335,887,356,5.3,21,43,0,2.832
Label 1   ,93,03/10/08,11:29:54,101071,6038,1374,921,335,2.1,21,43,0,2.832
Label 1   ,94,03/10/08,11:30:54,101867,6088,1374,928,313,4.2,21,43,0,2.832
Label 1   ,95,03/10/08,11:31:54,105455,6417,1487,987,348,3.2,21,42,0,2.832
Label 1   ,96,03/10/08,11:32:54,112308,7070,1663,1055,372,3.2,20,43,0,2.832
Label 1   ,97,03/10/08,11:33:54,114428,7364,1655,1116,397,2.8,21,43,0,2.832
Label 1   ,98,03/10/08,11:34:55,116443,7276,1588,1069,382,5.3,19,43,0,2.832
Label 1   ,99,03/10/08,11:35:55,117489,7376,1648,1109,385,4.9,21,42,0,2.832
Label 1   ,100,03/10/08,11:36:55,116202,7398,1639,1067,349,4.9,20,43,0,2.832
Label 1   ,101,03/10/08,11:37:55,126981,8432,1914,1283,572,14,19,42,0,2.832
Label 1   ,102,03/10/08,11:38:55,126977,8761,2077,1574,1035,48,20,42,0,2.832
Label 1   ,103,03/10/08,11:39:55,122663,8158,1917,1332,763,22,21,42,0,2.832
Label 1   ,104,03/10/08,11:40:56,123094,7993,1839,1171,435,3.9,21,42,0,2.832
Label 1   ,105,03/10/08,11:41:56,134927,9578,2207,1406,436,3.9,21,42,0,2.832
Label 1   ,106,03/10/08,11:42:56,143067,10443,2462,1501,443,3.9,21,41,0,2.832
Label 1   ,107,03/10/08,11:43:56,142201,10288,2395,1490,440,3.5,22,41,0,2.832
Label 1   ,108,03/10/08,11:44:56,139959,10291,2419,1515,467,1.8,22,41,0,2.832
Label 1   ,109,03/10/08,11:45:56,141187,10282,2404,1511,452,2.8,21,41,0,2.832
Label 1   ,110,03/10/08,11:46:57,142722,10421,2414,1534,456,2.8,22,41,0,2.832
Label 1   ,111,03/10/08,11:47:57,135803,9855,2340,1498,457,2.8,22,41,0,2.832
Label 1   ,112,03/10/08,11:48:57,124760,8798,2186,1453,428,2.5,21,41,0,2.832
Label 1   ,113,03/10/08,11:49:57,114509,7741,1863,1308,409,3.2,22,41,0,2.832
Label 1   ,114,03/10/08,11:50:57,113433,7523,1867,1252,417,2.1,22,40,0,2.832
Label 1   ,115,03/10/08,11:51:57,111299,7346,1788,1309,429,2.8,22,40,0,2.832
Label 1   ,116,03/10/08,11:52:58,118956,8230,2001,1404,450,1.8,22,39,0,2.832
Label 1   ,117,03/10/08,11:53:58,118736,8109,1935,1376,421,2.1,23,39,0,2.832
Label 1   ,118,03/10/08,11:54:58,111478,7107,1730,1185,379,2.1,22,39,0,2.832
Label 1   ,119,03/10/08,11:55:58,112155,7041,1674,1163,392,3.9,22,39,0,2.832
Label 1   ,120,03/10/08,11:56:58,115422,7272,1693,1170,387,2.8,21,39,0,2.832
Label 1   ,121,03/10/08,11:57:58,112027,6777,1523,1054,345,0.7,21,39,0,2.832
Label 1   ,122,03/10/08,11:58:58,103273,5743,1366,931,347,3.2,22,39,0,2.832
Label 1   ,123,03/10/08,11:59:59,97673,5408,1249,910,356,2.5,22,38,0,2.832
Label 1   ,124,03/10/08,12:00:59,97949,5385,1230,911,358,2.8,22,39,0,2.832
Label 1   ,125,03/10/08,12:01:59,95087,5110,1149,817,324,1.1,22,39,0,2.832
Label 1   ,126,03/10/08,12:02:59,93771,4893,1089,807,341,2.5,22,38,0,2.832
Label 1   ,127,03/10/08,12:03:59,93565,4829,1110,786,281,2.5,21,39,0,2.832
Label 1   ,128,03/10/08,12:04:59,94339,4831,1040,777,301,1.4,20,39,0,2.832
Label 1   ,129,03/10/08,12:05:59,93846,4814,1076,783,303,0.4,21,39,0,2.832
Label 1   ,130,03/10/08,12:07:00,94190,4788,1074,749,289,2.5,22,38,0,2.832
Label 1   ,131,03/10/08,12:08:00,95492,4802,1021,719,284,1.4,21,39,0,2.832
Label 1   ,132,03/10/08,12:09:00,95162,4773,1127,751,308,3.5,21,39,0,2.832
Label 1   ,133,03/10/08,12:10:00,96865,4919,1105,754,316,3.5,21,38,0,2.832
Label 1   ,134,03/10/08,12:11:00,99041,5019,1128,765,307,2.5,21,39,0,2.832
Label 1   ,135,03/10/08,12:12:00,97093,4922,1082,780,328,2.5,22,38,0,2.832
Label 1   ,136,03/10/08,12:13:01,92815,4688,1080,736,314,2.8,22,39,0,2.832
Label 1   ,137,03/10/08,12:14:01,91915,4664,1075,768,317,3.9,22,39,0,2.832
Label 1   ,138,03/10/08,12:15:01,92619,4753,1017,712,306,3.5,21,39,0,2.832
Label 1   ,139,03/10/08,12:16:01,95154,4871,1060,747,302,0.7,22,39,0,2.832
Label 1   ,140,03/10/08,12:17:01,97155,4885,1109,766,279,0.7,22,38,0,2.832
Label 1   ,141,03/10/08,12:18:01,100718,5111,1145,779,298,1.4,22,38,0,2.832
Label 1   ,142,03/10/08,12:19:01,97120,4944,1093,753,289,0.4,20,39,0,2.832
Label 1   ,143,03/10/08,12:20:02,96130,4934,1044,721,293,2.5,20,39,0,2.832
Label 1   ,144,03/10/08,12:21:02,96355,4978,1092,754,286,1.8,21,39,0,2.832
Label 1   ,145,03/10/08,12:22:02,95103,5090,1128,750,295,3.5,22,40,0,2.832
Label 1   ,146,03/10/08,12:23:02,94773,5132,1141,796,294,2.1,22,39,0,2.832
Label 1   ,147,03/10/08,12:24:02,89784,4674,1041,755,345,7.4,22,41,0,2.832
Label 1   ,148,03/10/08,12:25:02,87318,4448,982,734,284,2.1,22,39,0,2.832
Label 1   ,149,03/10/08,12:26:03,87948,4434,1023,742,294,1.1,22,40,0,2.832
Label 1   ,150,03/10/08,12:27:03,88267,4389,954,712,290,3.5,23,40,0,2.832
Label 1   ,151,03/10/08,12:28:03,92001,4832,1066,772,276,1.4,23,38,0,2.832
Label 1   ,152,03/10/08,12:29:03,91858,4733,1071,786,297,2.8,23,39,0,2.832
Label 1   ,153,03/10/08,12:30:03,89667,4633,1048,750,289,2.1,23,39,0,2.832
Label 1   ,154,03/10/08,12:31:03,92609,4882,1092,839,320,2.8,23,39,0,2.832
Label 1   ,155,03/10/08,12:32:03,92814,4806,1119,802,328,2.1,23,39,0,2.832
Label 1   ,156,03/10/08,12:33:04,93150,4795,1060,779,301,1.4,23,39,0,2.832
Label 1   ,157,03/10/08,12:34:04,94892,5011,1129,792,287,1.8,23,39,0,2.832
Label 1   ,158,03/10/08,12:35:04,97668,5231,1186,844,303,2.8,23,38,0,2.832
Label 1   ,159,03/10/08,12:36:04,98840,5192,1157,807,298,1.8,22,38,0,2.832
Label 1   ,160,03/10/08,12:37:04,99749,5222,1194,801,283,4.2,22,39,0,2.832
Label 1   ,161,03/10/08,12:38:04,98364,5154,1135,803,293,0.7,22,39,0,2.832
Label 1   ,162,03/10/08,12:39:04,99490,5225,1192,833,276,2.5,22,39,0,2.832
Label 1   ,163,03/10/08,12:40:05,99756,5378,1203,796,296,2.1,22,40,0,2.832
Label 1   ,164,03/10/08,12:41:05,98806,5298,1206,795,301,2.5,22,39,0,2.832
Label 1   ,165,03/10/08,12:42:05,97710,5253,1182,812,323,1.4,23,39,0,2.832
Label 1   ,166,03/10/08,12:43:05,99721,5355,1200,827,300,2.1,22,39,0,2.832
Label 1   ,167,03/10/08,12:44:05,100019,5395,1196,816,312,1.8,23,39,0,2.832
Label 1   ,168,03/10/08,12:45:05,100161,5351,1223,823,264,1.8,23,39,0,2.832
Label 1   ,169,03/10/08,12:46:06,100159,5278,1154,792,288,2.1,23,39,0,2.832
Label 1   ,170,03/10/08,12:47:06,100010,5181,1175,775,284,2.1,23,38,0,2.832
Label 1   ,171,03/10/08,12:48:06,101902,5238,1146,770,271,2.1,21,39,0,2.832
Label 1   ,172,03/10/08,12:49:06,101158,5250,1137,791,283,0.7,22,39,0,2.832
Label 1   ,173,03/10/08,12:50:06,99289,5031,1100,763,265,3.2,23,38,0,2.832
Label 1   ,174,03/10/08,12:51:06,100743,5068,1119,768,306,3.9,20,39,0,2.832
Label 1   ,175,03/10/08,12:52:06,101911,5121,1082,738,297,0.7,20,39,0,2.832
Label 1   ,176,03/10/08,12:53:07,98703,5119,1136,749,279,2.8,23,38,0,2.832
Label 1   ,177,03/10/08,12:54:07,95862,4836,1063,692,273,2.1,23,37,0,2.832
Label 1   ,178,03/10/08,12:55:07,97660,4911,1112,750,275,3.5,23,37,0,2.832
Label 1   ,179,03/10/08,12:56:07,106346,5603,1175,784,278,2.1,23,37,0,2.832
Label 1   ,180,03/10/08,12:57:07,98767,4944,1089,718,277,1.4,23,36,0,2.832
Label 1   ,181,03/10/08,12:58:07,96630,4812,1047,711,254,1.1,24,37,0,2.832
Label 1   ,182,03/10/08,12:59:07,97041,4786,1080,711,265,2.1,23,37,0,2.832
Label 1   ,183,03/10/08,13:00:08,98528,4814,1049,735,290,3.5,22,37,0,2.832
Label 1   ,184,03/10/08,13:01:08,98460,4830,1038,714,278,3.9,22,38,0,2.832
Label 1   ,185,03/10/08,13:02:08,98113,4853,1009,704,309,3.2,21,37,0,2.832
Label 1   ,186,03/10/08,13:03:08,97589,4814,976,732,278,2.5,22,38,0,2.832
Label 1   ,187,03/10/08,13:04:08,99269,4873,1052,707,276,1.4,21,38,0,2.832
Label 1   ,188,03/10/08,13:05:08,100886,4919,1081,732,278,1.4,21,38,0,2.832
Label 1   ,189,03/10/08,13:06:08,101096,4898,1081,709,262,1.8,20,38,0,2.832
Label 1   ,190,03/10/08,13:07:09,101937,4919,1077,708,294,3.2,21,38,0,2.832
Label 1   ,191,03/10/08,13:08:09,104873,5194,1121,733,286,1.8,21,38,0,2.832
Label 1   ,192,03/10/08,13:09:09,101317,4984,1048,730,279,2.8,21,39,0,2.832
Label 1   ,193,03/10/08,13:10:09,101880,4969,1093,730,272,2.8,20,38,0,2.832
Label 1   ,194,03/10/08,13:11:09,102379,5024,1082,723,284,3.2,20,38,0,2.832
Label 1   ,195,03/10/08,13:12:09,103313,5049,1071,736,285,4.2,19,39,0,2.832
Label 1   ,196,03/10/08,13:13:10,102136,5082,1050,706,294,1.4,21,39,0,2.832
Label 1   ,197,03/10/08,13:14:10,102794,5019,1046,733,286,3.5,19,39,0,2.832
Label 1   ,198,03/10/08,13:15:10,102394,4989,1031,731,270,4.9,20,39,0,2.832
Label 1   ,199,03/10/08,13:16:10,103367,4924,1067,703,281,3.2,19,38,0,2.832
Label 1   ,200,03/10/08,13:17:10,101493,4946,1029,682,271,3.5,20,39,0,2.832
Label 1   ,201,03/10/08,13:18:10,101521,4818,1005,701,279,2.5,20,39,0,2.832
Label 1   ,202,03/10/08,13:19:10,102077,4818,1039,692,281,2.5,19,38,0,2.832
Label 1   ,203,03/10/08,13:20:11,101935,4805,1016,702,272,3.5,20,38,0,2.832
Label 1   ,204,03/10/08,13:21:11,101290,4797,1017,667,286,2.1,20,38,0,2.832
Label 1   ,205,03/10/08,13:22:11,99716,4708,975,709,289,1.8,21,38,0,2.832
Label 1   ,206,03/10/08,13:23:11,100478,4724,997,705,284,2.5,21,37,0,2.832
Label 1   ,207,03/10/08,13:24:11,100170,4714,1012,653,272,2.8,21,38,0,2.832
Label 1   ,208,03/10/08,13:25:11,101086,4750,1025,688,275,1.8,21,38,0,2.832
Label 1   ,209,03/10/08,13:26:11,101776,4707,1026,649,278,0.7,20,37,0,2.832
Label 1   ,210,03/10/08,13:27:12,102467,4813,1030,693,271,2.8,20,37,0,2.832
Label 1   ,211,03/10/08,13:28:12,100936,4694,981,684,267,1.1,22,37,0,2.832
Label 1   ,212,03/10/08,13:29:12,99194,4569,979,655,281,3.5,23,37,0,2.832
Label 1   ,213,03/10/08,13:30:12,98924,4580,949,636,257,2.1,21,37,0,2.832
Label 1   ,214,03/10/08,13:31:12,99427,4555,963,651,276,2.1,22,37,0,2.832
Label 1   ,215,03/10/08,13:32:12,96433,4408,1001,651,252,0.7,24,36,0,2.832
Label 1   ,216,03/10/08,13:33:12,98021,4573,953,669,251,1.4,23,36,0,2.832
Label 1   ,217,03/10/08,13:34:13,99117,4606,973,686,277,2.8,23,36,0,2.832
Label 1   ,218,03/10/08,13:35:13,98467,4473,957,650,258,1.4,23,36,0,2.832
Label 1   ,219,03/10/08,13:36:13,97720,4445,1012,674,251,2.1,23,36,0,2.832
Label 1   ,220,03/10/08,13:37:13,98753,4688,994,671,256,0.7,22,36,0,2.832
Label 1   ,221,03/10/08,13:38:13,99926,4683,997,682,274,1.1,22,36,0,2.832
Label 1   ,222,03/10/08,13:39:13,101103,4735,1008,704,277,1.8,23,36,0,2.832
Label 1   ,223,03/10/08,13:40:14,101649,4817,1041,691,274,1.4,22,36,0,2.832
Label 1   ,224,03/10/08,13:41:14,101063,4743,1034,713,283,1.8,24,36,0,2.832
Label 1   ,225,03/10/08,13:42:14,102045,4865,1042,729,261,1.1,23,35,0,2.832
Label 1   ,226,03/10/08,13:43:14,101705,4811,999,741,254,1.1,24,36,0,2.832
Label 1   ,227,03/10/08,13:44:14,101645,4926,1081,738,254,1.4,24,35,0,2.832
Label 1   ,228,03/10/08,13:45:14,102326,5020,1009,714,267,2.1,23,36,0,2.832
Label 1   ,229,03/10/08,13:46:14,102390,4839,1011,689,259,2.5,23,36,0,2.832
Label 1   ,230,03/10/08,13:47:15,100705,4778,1000,708,289,2.1,24,36,0,2.832
Label 1   ,231,03/10/08,13:48:15,100986,4856,969,690,281,2.5,23,35,0,2.832
Label 1   ,232,03/10/08,13:49:15,102129,4807,1010,741,293,3.2,22,36,0,2.832
Label 1   ,233,03/10/08,13:50:15,101727,4824,1030,699,283,2.1,23,36,0,2.832
Label 1   ,234,03/10/08,13:51:15,98850,4670,992,702,266,1.1,23,36,0,2.832
Label 1   ,235,03/10/08,13:52:15,98364,4603,995,689,274,1.8,23,34,0,2.832
Label 1   ,236,03/10/08,13:53:15,99732,4692,1022,721,277,3.9,24,35,0,2.832
Label 1   ,237,03/10/08,13:54:16,101482,4769,1015,700,294,2.1,21,36,0,2.832
Label 1   ,238,03/10/08,13:55:16,100452,4776,1050,715,297,1.8,22,36,0,2.832
Label 1   ,239,03/10/08,13:56:16,101798,4925,1067,742,305,5.3,24,36,0,2.832
Label 1   ,240,03/10/08,13:57:16,102897,5039,1087,756,286,1.4,23,36,0,2.832
Label 1   ,241,03/10/08,13:58:16,103378,5057,1081,726,303,1.8,22,36,0,2.832
Label 1   ,242,03/10/08,13:59:16,103301,4904,1077,756,292,3.2,22,37,0,2.832
Label 1   ,243,03/10/08,14:00:17,102260,5036,1105,720,295,1.8,23,37,0,2.832
Label 1   ,244,03/10/08,14:01:17,102860,4965,1068,749,310,0.7,22,36,0,2.832
Label 1   ,245,03/10/08,14:02:17,103302,5068,1086,762,278,1.4,23,36,0,2.832
Label 1   ,246,03/10/08,14:03:17,104035,5062,1125,777,299,3.5,22,36,0,2.832
Label 1   ,247,03/10/08,14:04:17,105134,5303,1131,772,283,1.4,22,37,0,2.832
Label 1   ,248,03/10/08,14:05:17,105441,5164,1147,743,307,2.5,21,37,0,2.832
Label 1   ,249,03/10/08,14:06:17,105338,5206,1099,761,299,1.8,20,37,0,2.832
Label 1   ,250,03/10/08,14:07:18,104932,5202,1103,749,274,2.5,21,37,0,2.832
Label 1   ,251,03/10/08,14:08:18,104712,5128,1089,711,301,2.8,21,37,0,2.832
Label 1   ,252,03/10/08,14:09:18,102756,4942,1072,711,289,2.8,21,37,0,2.832
Label 1   ,253,03/10/08,14:10:18,99953,4826,1059,703,289,1.8,24,36,0,2.832
Label 1   ,254,03/10/08,14:11:18,98334,4710,1008,736,289,3.5,23,36,0,2.832
Label 1   ,255,03/10/08,14:12:18,98194,4688,1018,702,280,3.9,22,36,0,2.832
Label 1   ,256,03/10/08,14:13:18,98883,4769,1032,676,284,1.1,21,36,0,2.832
Label 1   ,257,03/10/08,14:14:19,98216,4743,996,714,287,2.1,22,36,0,2.832
Label 1   ,258,03/10/08,14:15:19,101991,5012,1078,729,279,2.8,22,36,0,2.832
Label 1   ,259,03/10/08,14:16:19,105719,5322,1121,756,265,1.4,22,36,0,2.832
Label 1   ,260,03/10/08,14:17:19,107756,5580,1164,770,267,1.4,23,36,0,2.832
Label 1   ,261,03/10/08,14:18:19,110527,5903,1242,791,276,2.8,22,35,0,2.832
Label 1   ,262,03/10/08,14:19:19,102632,5236,1079,719,268,2.5,24,35,0,2.832
Label 1   ,263,03/10/08,14:20:20,99484,4675,1012,670,252,0.7,24,35,0,2.832
Label 1   ,264,03/10/08,14:21:20,97013,4557,973,687,263,1.8,24,33,0,2.832
Label 1   ,265,03/10/08,14:22:20,100518,4800,1006,680,231,0.4,25,34,0,2.832
Label 1   ,266,03/10/08,14:23:20,110138,5495,1114,738,258,1.8,25,35,0,2.832
Label 1   ,267,03/10/08,14:24:20,106622,5121,1067,726,255,3.2,26,33,0,2.832
Label 1   ,268,03/10/08,14:25:20,120226,5616,1135,732,251,2.1,24,34,0,2.832
Label 1   ,269,03/10/08,14:26:20,113779,5383,1119,731,257,2.1,22,34,0,2.832
Label 1   ,270,03/10/08,14:27:21,109366,5170,1070,739,268,0.7,25,35,0,2.832
Label 1   ,271,03/10/08,14:28:21,134047,5497,1098,754,269,2.8,24,34,0,2.832
Label 1   ,272,03/10/08,14:29:21,98850,4557,913,661,261,1.1,22,34,0,2.832
Label 1   ,273,03/10/08,14:30:21,101430,4625,946,685,261,1.4,25,33,0,2.832
Label 1   ,274,03/10/08,14:31:21,102354,4682,992,658,243,1.8,26,32,0,2.832
Label 1   ,275,03/10/08,14:32:21,94022,4434,927,687,239,2.1,25,31,0,2.832
Label 1   ,276,03/10/08,14:33:21,90085,4203,911,642,207,0.7,26,31,0,2.832
Label 1   ,277,03/10/08,14:34:22,91065,4240,908,656,225,0.7,26,32,0,2.832
Label 1   ,278,03/10/08,14:35:22,96813,4405,935,638,232,0.7,24,32,0,2.832
Label 1   ,279,03/10/08,14:36:22,95017,4352,932,654,224,0.0,24,31,0,2.832
Label 1   ,280,03/10/08,14:37:22,94787,4343,915,623,212,0.4,25,32,0,2.832
Label 1   ,281,03/10/08,14:38:22,91425,4212,908,655,222,2.1,25,31,0,2.832
Label 1   ,282,03/10/08,14:39:22,86661,3944,855,616,228,1.1,26,30,0,2.832
Label 1   ,283,03/10/08,14:40:23,83877,3864,884,602,219,1.1,26,30,0,2.832
Label 1   ,284,03/10/08,14:41:23,84590,3889,878,611,192,1.4,26,30,0,2.832
Label 1   ,285,03/10/08,14:42:23,86371,4027,884,616,210,0.7,26,31,0,2.832
Label 1   ,286,03/10/08,14:43:23,87384,4194,918,665,200,0.0,25,30,0,2.832
Label 1   ,287,03/10/08,14:44:23,88465,4207,962,732,560,46,26,31,0,2.832
Label 1   ,288,03/10/08,14:45:23,88537,4214,878,641,273,4.2,26,30,0,2.832
Label 1   ,289,03/10/08,14:46:23,89311,4218,902,637,243,1.1,26,30,0,2.832
Label 1   ,290,03/10/08,14:47:24,89332,4202,942,682,379,26,26,30,0,2.832
Label 1   ,291,03/10/08,14:48:24,91521,4416,940,664,386,33,26,30,0,2.832
Label 1   ,292,03/10/08,14:49:24,92799,4415,940,673,213,1.1,25,31,0,2.832
Label 1   ,293,03/10/08,14:50:24,91929,4410,951,643,202,1.1,25,31,0,2.832
Label 1   ,294,03/10/08,14:51:24,92962,4369,940,657,195,0.0,25,30,0,2.832
Label 1   ,295,03/10/08,14:52:24,93266,4412,982,660,242,0.0,25,31,0,2.832
Label 1   ,296,03/10/08,14:53:25,91370,4403,999,694,220,0.4,22,32,0,2.832
Label 1   ,297,03/10/08,14:54:25,91424,4335,945,660,211,1.1,24,31,0,2.832
Label 1   ,298,03/10/08,14:55:25,91773,4356,968,655,221,0.4,25,31,0,2.832
Label 1   ,299,03/10/08,14:56:25,90511,4403,920,683,242,0.7,25,31,0,2.832
Label 1   ,300,03/10/08,14:57:25,90662,4297,964,670,232,0.7,25,31,0,2.832
Label 1   ,301,03/10/08,14:58:25,90643,4346,974,686,233,1.8,25,31,0,2.832
Label 1   ,302,03/10/08,14:59:25,91020,4447,950,669,215,0.7,25,31,0,2.832
Label 1   ,303,03/10/08,15:00:26,91735,4521,1032,661,240,3.2,25,31,0,2.832
Label 1   ,304,03/10/08,15:01:26,88091,4466,992,664,226,0.7,25,30,0,2.832
Label 1   ,305,03/10/08,15:02:26,89146,4582,1036,690,211,1.1,26,30,0,2.832
Label 1   ,306,03/10/08,15:03:26,88658,4457,1016,708,204,0.4,26,30,0,2.832
Label 1   ,307,03/10/08,15:04:26,85933,4205,965,669,219,1.1,25,31,0,2.832
Label 1   ,308,03/10/08,15:05:26,86995,4294,961,665,225,0.4,25,31,0,2.832
Label 1   ,309,03/10/08,15:06:26,90489,4769,1083,719,231,0.4,24,31,0,2.832
Label 1   ,310,03/10/08,15:07:27,92836,5155,1183,770,230,1.4,25,31,0,2.832
Label 1   ,311,03/10/08,15:08:27,91513,5393,1272,840,238,2.1,25,31,0,2.832
Label 1   ,312,03/10/08,15:09:27,87740,4552,1064,752,229,0.4,25,31,0,2.832
Label 1   ,313,03/10/08,15:10:27,88692,4495,1059,702,221,0.4,25,31,0,2.832
Label 1   ,314,03/10/08,15:11:27,90658,4725,1098,745,221,0.7,25,32,0,2.832